Weather History for Mombasa, Kenya

Change the Weather History Date:

Thursday, March 6, 2014

  Actual Average Record
Temperature  
Mean Temperature 84 °F -  
Max Temperature 93 °F 92 °F 93 °F (2014)
Min Temperature 75 °F 73 °F 73 °F (2004)
Cooling Degree Days 19    
Growing Degree Days 34 (Base 50)    
Moisture  
Dew Point 74 °F    
Average Humidity 73    
Maximum Humidity 100    
Minimum Humidity 47    
Precipitation  
Precipitation 0.00 in 0.10 in - ()
Sea Level Pressure  
Sea Level Pressure 29.84 in    
Wind  
Wind Speed 7 mph ()    
Max Wind Speed 23 mph    
Max Gust Speed -    
Visibility 9.1 miles    
Events Rain    
Averages and records for this station are not official NWS values.
T = Trace of Precipitation, MM = Missing Value Source: Averaged Metar Reports

Daily Weather History Graph

Daily Weather History Graph

Search for Another Location

Airport:

Trip Planner

Search our weather history database for the weather conditions in past years. The results will help you decide how hot, cold, wet, or windy it might be!

Date:

Astronomy

Mar. 06, 2014 Rise Set
Actual Time 6:27 AM EAT 6:37 PM EAT
Civil Twilight 6:07 AM EAT 6:58 PM EAT
Nautical Twilight 5:42 AM EAT 7:22 PM EAT
Astronomical Twilight 5:18 AM EAT 7:46 PM EAT
Moon 10:42 AM EAT (3/6) 10:56 PM EAT (3/6)
Length of Visible Light 12h 51m
Length of Day
12h 09m
Waxing Crescent, 29% of the Moon is Illuminated
Mar 6
Waxing Crescent
Mar 8
First Quarter
Mar 16
Full
Mar 24
Last Quarter
Mar 30
New

Hourly Weather History & Observations

Time (EAT) Temp. Heat Index Dew Point Humidity Pressure Visibility Wind Dir Wind Speed Gust Speed Precip Events Conditions
12:00 AM 80 °F - 77 °F 86% 29.86 in 12 mi SW 5.8 mph - -   Mostly Cloudy
3:00 AM 79 °F - 77 °F 92% 29.82 in 9 mi Calm Calm - -   Overcast
3:30 AM 78.8 °F - 77.0 °F 94% 29.80 in 6.2 mi Calm Calm - N/A Rain Rain Showers
5:30 AM 77.0 °F - 77.0 °F 100% 29.83 in 6.2 mi Calm Calm - N/A   Mostly Cloudy
6:00 AM 78 °F - 77 °F 94% 29.84 in 9 mi Calm Calm - -   Partly Cloudy
6:30 AM 78.8 °F - 77.0 °F 94% 29.83 in 6.2 mi Calm Calm - N/A   Mostly Cloudy
7:30 AM 78.8 °F - 77.0 °F 94% 29.86 in 6.2 mi Calm Calm - N/A   Mostly Cloudy
9:00 AM 82 °F - 75 °F 75% 29.91 in 19 mi SSW 9.2 mph - -   Scattered Clouds
9:00 AM 82.4 °F 89.5 °F 75.2 °F 79% 29.92 in 6.2 mi SSW 9.2 mph - N/A   Mostly Cloudy
10:00 AM 84.2 °F 90.9 °F 73.4 °F 70% 29.89 in 6.2 mi South 13.8 mph - N/A   Mostly Cloudy
11:00 AM 89.6 °F 98.2 °F 73.4 °F 59% 29.89 in 6.2 mi South 15.0 mph - N/A   Scattered Clouds
12:00 PM 90 °F - 72 °F 47% 29.86 in 19 mi South 12.7 mph - -   Partly Cloudy
12:00 PM 89.6 °F 96.2 °F 71.6 °F 55% 29.86 in 6.2 mi South 12.7 mph - N/A   Partly Cloudy
1:00 PM 91.4 °F 102.5 °F 75.2 °F 59% 29.83 in 6.2 mi SSE 19.6 mph - N/A   Partly Cloudy
2:00 PM 89.6 °F 99.8 °F 75.2 °F 62% 29.77 in 6.2 mi SSE 23.0 mph - N/A   Partly Cloudy
3:00 PM 88 °F - 75 °F 58% 29.76 in 19 mi South 20.7 mph - -   Partly Cloudy
3:00 PM 87.8 °F 97.6 °F 75.2 °F 66% 29.77 in 6.2 mi South 20.7 mph - N/A   Partly Cloudy
4:00 PM 87.8 °F 95.6 °F 73.4 °F 62% 29.77 in 6.2 mi South 15.0 mph - N/A   Mostly Cloudy
5:00 PM 86.0 °F 90.4 °F 69.8 °F 58% 29.80 in 6.2 mi South 16.1 mph - N/A   Mostly Cloudy
6:00 PM 82 °F - 70 °F 59% 29.84 in 19 mi SSW 11.5 mph - -   Partly Cloudy
7:00 PM 82.4 °F 86.3 °F 69.8 °F 66% 29.83 in 6.2 mi West 6.9 mph - N/A   Mostly Cloudy
8:00 PM 80.6 °F 83.9 °F 69.8 °F 70% 29.83 in 6.2 mi SW 9.2 mph - N/A   Mostly Cloudy
9:00 PM 80 °F - 69 °F 62% 29.85 in 19 mi South 16.1 mph - -   Scattered Clouds
9:00 PM 78.8 °F - 69.8 °F 74% 29.86 in 6.2 mi South 16.1 mph - N/A   Mostly Cloudy
10:00 PM 80.6 °F 85.4 °F 73.4 °F 79% 29.86 in 6.2 mi SSW 12.7 mph - N/A   Mostly Cloudy
11:00 PM 80.6 °F 85.4 °F 73.4 °F 79% 29.86 in 6.2 mi SSW 12.7 mph - N/A   Scattered Clouds